Location: Unspecified
(0.0000°N, 0.0000°E)
Time: 05:27:49
(UTC+00:00)

Vanguard 2 - Visible Passes

Search period start: 24 April 2017 00:00
Search period end: 04 May 2017 00:00
Orbit: 553 x 2941 km, 32.9° (Epoch: 22 April)

Date Brightness Start Highest point End Pass type
(mag) Time Alt. Az. Time Alt. Az. Time Alt. Az.
24 Apr 11.7 18:30:54 10° NW 18:40:15 16° N 18:49:02 10° NNE visible
24 Apr 11.2 20:49:39 10° NNW 20:57:55 16° N 21:01:31 14° NNE visible
24 Apr 11.5 23:01:36 10° NW 23:02:56 13° NNW 23:02:56 13° NNW visible
25 Apr 11.6 18:51:49 10° NNW 19:00:33 15° N 19:08:34 10° NNE visible
25 Apr 11.0 21:07:48 10° NNW 21:17:39 20° NNE 21:18:30 19° NNE visible
25 Apr 11.6 23:19:33 10° NW 23:19:55 11° NW 23:19:55 11° NW visible
26 Apr 11.5 19:11:50 10° NNW 19:20:50 16° N 19:28:53 10° NE visible
26 Apr 10.9 21:25:46 10° NNW 21:35:30 24° N 21:35:30 24° N visible
27 Apr 11.3 19:30:57 10° NNW 19:40:59 17° N 19:49:38 10° NE visible
27 Apr 10.8 21:43:44 10° NW 21:52:30 28° N 21:52:30 28° N visible
28 Apr 11.1 19:49:28 10° NNW 20:00:55 21° NNE 20:08:06 14° NE visible
28 Apr 10.8 22:01:45 10° NW 22:09:31 30° NNW 22:09:31 30° NNW visible
29 Apr 10.9 20:07:40 10° NNW 20:20:35 26° NNE 20:25:07 22° NE visible
29 Apr 10.9 22:19:54 10° NW 22:26:33 28° NW 22:26:33 28° NW visible
30 Apr 11.5 18:13:00 10° NNW 18:23:28 18° N 18:33:18 10° NE visible
30 Apr 10.6 20:25:44 10° NNW 20:40:01 32° NNE 20:42:10 31° NE visible
30 Apr 11.1 22:38:15 10° NW 22:43:36 25° NW 22:43:36 25° NW visible
01 May 11.4 18:31:43 10° NNW 18:43:33 21° NNE 18:54:16 10° ENE visible
01 May 10.3 20:43:48 10° NW 20:59:12 41° NNE 20:59:15 41° NNE visible
01 May 11.3 22:56:51 10° WNW 23:00:40 20° WNW 23:00:40 20° WNW visible
02 May 11.2 18:50:01 10° NNW 19:03:22 25° NNE 19:14:55 10° ENE visible
02 May 10.2 21:01:55 10° NW 21:16:20 51° N 21:16:20 51° N visible
02 May 11.5 23:15:48 10° WNW 23:17:46 15° WNW 23:17:46 15° WNW visible
03 May 10.9 19:08:08 10° NNW 19:22:54 31° NNE 19:32:02 18° ENE visible
03 May 10.1 21:20:10 10° NW 21:33:29 56° NNW 21:33:29 56° NNW visible
